Regional Weather Roundup
Issued by NWS

Home | Current Version | Previous Version | Text Only | Print | Product List | Glossary Off
Versions: 1 2 3 4 5 6 7 8 9 10 11 12 13 14 15 16 17 18 19 20 21 22 23 24 25 26 27 28 29 30 31 32 33 34 35 36 37 38 39 40 41 42 43 44 45 46 47 48 49 50

000
ASUS43 KFSD 270102
RWRSD

WEATHER ROUNDUP FOR SOUTH DAKOTA
NATIONAL WEATHER SERVICE SIOUX FALLS SD
700 PM CST MON JAN 26 2015

NOTE: "FAIR" INDICATES FEW OR NO CLOUDS BELOW 12,000 FEET WITH NO
SIGNIFICANT WEATHER AND/OR OBSTRUCTIONS TO VISIBILITY.


SDZ001>005-009-010-012>017-270200-
NORTHWEST AND NORTH CENTRAL SOUTH DAKOTA

CITY           SKY/WX    TMP DP  RH WIND       PRES   REMARKS
BUFFALO          N/A     50  32  50 S7        29.90S
FAITH            N/A     52  30  43 E5        29.97S
MOBRIDGE       MOCLDY    39  31  72 E6        29.96S
$$

SDZ012>016-024>037-041>051-057-063-072>074-270200-
SOUTHWEST AND SOUTH CENTRAL SOUTH DAKOTA

CITY           SKY/WX    TMP DP  RH WIND       PRES   REMARKS
RAPID CTY ARPT CLEAR     51  29  42 SW3       30.00S
PIERRE         PTCLDY    37  28  70 N3        29.97F
CUSTER         CLEAR     48  25  40 W6        30.10F
PHILIP         CLEAR     45  30  55 CALM      29.98F
PINE RIDGE     CLEAR     40  30  67 CALM      30.05S
WINNER         FAIR      50  31  48 SW5       30.01R
$$

SDZ004>011-016>023-039-040-270200-
NORTHEAST SOUTH DAKOTA

CITY           SKY/WX    TMP DP  RH WIND       PRES   REMARKS
ABERDEEN       CLEAR     36  31  82 W8        29.99R
WATERTOWN      CLEAR     35  31  85 NW6       29.96R
SISSETON         N/A     33  32  96 N7        29.96R WCI  27
$$

SDZ017-020-022-023-036>040-048>070-270200-
SOUTHEAST SOUTH DAKOTA

CITY           SKY/WX    TMP DP  RH WIND       PRES   REMARKS
SIOUX FALLS    PTCLDY    38  32  79 W9        29.97R
HURON          CLEAR     34  31  88 NW7       30.00R WCI  28
MITCHELL       CLEAR     40  34  79 W6        30.01R
YANKTON        CLEAR     43  34  70 W12       30.01S
$$

ABBREVIATIONS USED IN REMARKS
   TC - TEMPERATURE IN CELSIUS
  WCI - WIND CHILL INDEX
   HX - HEAT INDEX
  VSB - VISIBILITY




USA.gov is the U.S. government's official web portal to all federal, state and local government web resources and services.